Showing default

AGILA, 62456

Orbit data source: Space-Track

AGILA, 62456 is a UK payload satellite in GEO that was launched on Sun, 29 Dec 2024 UTC via an FALCON 9 launch vehicle from the Air Force Eastern Test Range (AFETR). Payload-class satellites include a variety of spacecraft equipped with specific instruments for various scientific and technological missions. These include communications satellites like Starlink; space stations such as the ISS; scientific satellites like the Hubble; Earth observation satellites from companies like Planet Labs, Umbra, and HawkEye 360; GPS; miniature CubeSats for education and research; and military/defense satellites.

Not visible in the next 10 days
Identifier
62456, 2024-252C
Orbit
GEO
Country
Flag of UKUK
Related business
Manufacturer
Astranis
Mission
Operational Commercial Communications
Bus & Motor
MICROGEO, EP
Mass
400 kg wet, 400 kg dry
Launch date (UTC)
2024-12-29 (2 years ago)
Launch vehicle
FALCON 9
Launch site
Air Force Eastern Test Range (AFETR)
Object type
Payload
Rocket body
Debris
Shape & HBR
Box + 22 Pan, 5.0 m
Radar Cross Section
41.175 m², Large (>1 m²)

Expand to show TLE details & history
Last TLE update: 10 hours ago

TLE from 10 hours ago
0 AGILA
1 62456U 24252C   26195.53030751 -.00000190  00000-0  00000-0 0  9996
2 62456   0.0484 132.0160 0001150 345.5946 157.8505  1.00270642  5432
Epoch: 2026-07-14T12:43Z
TLE epoch observation values (Epoch: 2026-07-14T12:43:38.568Z)
Latitude
0.00533°
Longitude
152.17366°
Altitude
35,790.923 km
Speed
3.074 km/s
True Right ascension
18h 21m 56s
True Declination
0° 00' 19"
Sunlit
Object was in daylight at epoch
Visualization orbit readout
Latitude
Unknown
Longitude
Unknown
Altitude
Unknown
Speed
Unknown
Apparent Right ascension
Unknown
Apparent Declination
Unknown
Sunlit
N/A
Visualization observer readout
Local Sidereal Time
10:46:51
Azimuth
Unknown
Elevation
Unknown
Doppler factor
Unknown
Orbital elements
Apogee altitude
35,792.835 km
Perigee altitude
35,783.137 km
Semi-major axis
42,166.123 km
Eccentricity
0.00012
Inclination
0.0484°
RAAN
132.016°
Arg. of periapsis
345.5946°
True anomaly
157.85547°
Mean anomaly
157.8505°
Eccentric anomaly
157.85298°
Mean motion
0.25067 °/min
Orbital period
1,436.17 mins
BSTAR
0
Loading maneuver chart data...
Computing Atmospheric mass density...
Loading historical data...
Loading historical data...
Loading historical data...
Loading historical data...
Loading historical data...
Loading historical data...
Loading historical data...
Other satellites on launch #252 in the year 2024 (2024-12-29 UTC)

Documentation

Showing up to 5 results
|